Find Flock 4q-34

NORAD ID: 58316 Int'l Des: 2023-174 Owner: PLAN Country: US Constellation: planet operational
LEOCIRCULARRETROGRADESSO

当前视图

正在加载3D地球...

关于 Flock 4q-34

正在加载描述...

即将过境

Passes for default location (London). Set your location on the main map for personalized predictions.

高度历史

Loading altitude history...

两行轨道根数

1 58316U 23174BN 26146.22048838 .00185324 00000-0 15887-2 0 9998
2 58316 97.3805 239.3115 0008619 223.5409 136.5173 15.68790771142532
Epoch: May 26, 2026 • Age: 15 hours

当前状态

高度 371.7 km
速度 7.68 km/s
星下点 -17.53°S, 50.02°E
发射日期 Nov 11, 2023
运行时间 2.5 years
类型 earth observation

技术详情

分类 Payload
质量 5.70 kg
干质量 5.70 kg
总质量 5.70 kg
长度 0.30 m
直径 0.10 m
跨度 0.30 m
形状 Box+2 pan
制造商 PLAN
平台类型 Cubesat 3U
阶段状态 In Orbit
所有者/国家 PLAN/US

Most Searched